STARLINK-30970

decayed
NORAD ID: 58888 Int'l Des: 2024-020 Owner: SPXS Country: US Constellation: starlink
LEOCIRCULAR

关于 STARLINK-30970

正在加载描述...

高度历史

Altitude vs Time

uPlot chart will show altitude changes over time

两行轨道根数

1 58888U 24020N 24253.66950291 .35820472 12235-4 63633-2 0 9990
2 58888 53.1268 325.5076 0006876 336.6156 103.9015 16.31833854 35817
Epoch: Sep 9, 2024 • Age: 8930 hours

当前状态

Position data unavailable
发射日期 Jan 29, 2024
运行时间 1.6 years
衰减日期 Sep 9, 2024
类型 internet

技术详情

分类 Payload
质量 730.00 kg
干质量 700.00 kg
总质量 730.00 kg
长度 0.30 m
直径 4.10 m
跨度 29.00 m
形状 Box + pan
制造商 SPXS
平台类型 Starlink V2M
阶段状态 Reentered
所有者/国家 SPXS/US

大型星座

Loading constellations...